English version Home page |
Updated on November 5, 2020 |
|
軌道要素Epoch 2014 Oct. 30.0 TT = JDT 2456960.5 T 2014 Oct. 17.59717 TT MPCW q 2.0011850 (2000.0) P Q n 0.10291186 Peri. 53.33774 -0.35115034 -0.92477540 a 4.5098188 Node 57.84879 +0.79431363 -0.37710364 e 0.5562604 Incl. 9.96944 +0.49574116 -0.05082617 P 9.58 From 2025 observations 1995 Aug. 1-2015 Jan. 1, mean residual 0".7. Nongravitational parameters A1 = -0.06, A2 = -0.0812.
|
星図
|
光度変化m1 = 9.0 + 5 logΔ + 12.0 log r
|
軌道要素はM.P.E.C. 2015-A10に掲載されたものです。
|